Location: Kawakawa
(35.3830°S, 174.0670°E)
Time: 01:52:21
(UTC+13:00)

Altair - Pass Details

Date: 09 December 2019
Orbit: 1502 x 1682 km, 47.2° (Epoch: 27 January)

Event Time Altitude Azimuth Distance (km) Brightness Sun altitude
Rises 13:44:48 0° 256° (WSW) 4,866 10.2 75.9°
Reaches altitude 10° 13:48:11 10° 248° (WSW) 3,903 9.8 75.5°
Maximum altitude 13:57:36 42° 179° (S) 2,256 8.9 74.4°
Drops below altitude 10° 14:07:10 10° 110° (ESE) 3,961 9.6 73.1°
Sets 14:10:38 0° 103° (ESE) 4,943 10.0 72.6°
